Theta_e
345 342 342 342 341 342 339 338 339 340 341 341 341 341 339 335 335 338 338 336 335 337 339 339 339 340 340 342 344 344 343 344 344 344 345 345 346 345 344 344 344 344 344 342 340 339 340 342 343 344 345 344 343 342 342 344 343 344 344 344 343 342 342 342 343 342 343 343 343 343 343 343 343 344 344 344 343 343 343 343 343 342 343 344 343
344 342 342 341 339 341 340 341 342 342 341 341 342 340 335 332 333 336 338 337 335 337 340 339 340 342 341 343 344 344 344 343 343 344 345 345 345 344 344 343 344 344 343 343 340 339 340 342 344 345 345 345 344 342 342 343 343 344 344 343 341 340 340 341 342 342 342 342 342 343 343 343 343 343 343 343 343 343 343 343 343 343 344 344 343
342 340 340 340 340 342 342 341 342 341 339 339 339 337 335 335 337 339 341 339 336 339 341 340 341 342 342 343 343 344 344 344 344 344 344 344 344 344 343 342 342 343 343 343 341 339 339 342 344 344 344 344 343 344 343 342 343 344 344 343 342 342 343 342 342 342 343 343 342 342 342 343 343 343 343 343 343 343 343 343 343 343 344 343 343
341 339 340 342 343 343 342 340 340 338 338 340 340 341 341 342 342 341 341 339 338 339 341 341 341 342 343 343 343 344 344 345 345 345 344 344 345 345 343 341 342 342 342 343 341 339 338 340 343 343 344 344 343 343 343 342 343 343 343 343 343 343 343 343 343 344 344 344 344 343 343 343 343 343 343 342 343 343 342 342 342 342 343 342 342
341 340 342 344 342 341 342 341 340 339 340 342 342 343 344 344 344 342 342 341 340 340 341 341 342 344 344 342 342 344 344 345 345 344 344 343 344 344 342 341 342 342 342 342 342 340 339 338 340 343 344 344 344 344 343 342 342 343 343 342 343 343 343 344 343 343 344 344 344 343 343 343 343 343 342 342 342 342 342 342 342 341 341 341 341
342 343 345 343 339 339 341 341 340 341 342 342 342 343 344 344 343 343 343 343 342 342 342 342 343 344 344 343 343 344 345 345 345 343 343 343 343 343 342 341 342 342 342 341 341 341 340 338 339 342 344 344 344 344 343 342 342 342 343 342 343 344 344 344 343 343 343 344 343 342 342 342 343 342 342 342 342 342 342 342 342 341 341 340 339
346 346 346 340 336 336 338 340 341 342 343 342 343 344 344 343 343 344 344 345 345 344 343 342 342 342 343 344 345 345 344 344 344 344 343 344 343 342 342 341 342 341 341 341 341 342 341 340 339 340 342 343 343 343 343 341 341 342 342 342 343 345 344 343 343 343 343 344 343 342 342 342 342 342 342 342 342 342 342 342 342 342 341 340 338
348 347 343 336 334 338 340 342 343 343 342 342 343 344 343 343 343 343 343 344 345 345 344 342 341 341 342 343 345 345 345 344 344 344 343 343 342 342 342 342 341 341 340 341 341 341 340 340 341 340 341 343 343 343 342 339 340 342 342 342 343 343 342 342 342 343 343 344 343 343 343 342 341 341 342 342 342 342 342 342 342 342 342 341 338
349 346 339 334 337 341 342 342 341 341 342 342 342 343 343 342 342 342 342 342 343 344 344 343 341 341 342 343 344 344 345 344 344 344 343 343 342 342 342 342 340 340 340 341 341 340 337 337 340 341 341 342 343 343 340 338 340 341 342 342 343 342 342 342 342 343 343 344 343 343 342 342 341 341 342 342 342 342 343 343 342 341 340 340 338
350 345 336 335 339 340 341 341 341 342 342 342 342 342 342 342 342 342 342 341 341 342 343 343 342 341 342 343 343 343 344 343 342 343 343 342 341 342 342 342 341 340 341 341 340 338 336 336 337 338 339 341 342 342 339 338 340 341 341 341 342 344 345 344 343 343 343 343 342 342 340 338 336 338 340 340 341 341 342 343 342 339 338 338 337
351 346 337 338 340 340 341 341 342 342 342 342 342 342 343 342 342 342 342 342 341 342 343 344 343 342 343 343 343 344 344 343 342 342 342 342 341 341 341 341 341 341 341 340 339 338 336 335 336 336 337 338 340 340 338 338 340 340 340 341 343 346 347 346 345 345 345 344 342 339 337 335 333 334 336 337 337 338 339 340 339 338 337 336 337
350 343 337 339 340 341 342 342 342 342 341 342 342 343 343 342 342 343 343 342 342 342 342 343 343 343 344 343 344 344 344 343 341 341 342 342 342 341 340 340 341 341 340 340 340 339 338 336 336 336 336 336 337 337 337 337 339 338 339 341 343 346 347 347 347 346 347 346 341 336 334 333 332 334 335 335 336 336 336 337 336 336 336 337 337
348 340 337 339 340 341 342 342 342 341 341 343 344 344 343 342 343 343 343 343 343 344 343 343 343 343 344 344 344 344 344 344 341 340 341 342 342 340 339 339 339 339 339 340 341 341 340 338 335 335 336 334 333 334 335 337 337 336 339 343 344 346 347 348 347 346 346 344 337 333 332 330 330 331 332 333 334 334 334 335 336 337 337 337 336
347 342 339 340 339 340 341 342 342 341 342 344 345 344 342 342 343 343 344 344 344 344 343 343 342 343 345 345 344 344 344 344 342 342 342 342 341 340 340 340 340 340 341 341 340 339 338 336 334 332 332 332 332 333 334 335 335 337 340 342 343 345 346 347 347 345 345 340 334 332 330 328 329 329 328 329 328 328 329 331 333 334 334 333 332
347 345 342 341 340 340 341 341 340 341 342 344 344 342 342 342 342 343 344 345 344 344 345 344 343 344 346 345 343 343 343 343 343 343 343 343 343 342 342 342 342 342 342 341 339 337 334 333 331 328 327 330 331 332 333 334 335 338 339 339 342 344 345 346 346 346 346 340 334 331 328 327 328 328 327 327 326 326 327 327 328 329 329 329 330
349 348 344 341 341 341 341 340 339 340 341 342 342 342 342 342 342 344 344 344 344 345 345 345 344 344 345 344 342 342 343 343 343 343 343 343 344 344 344 344 343 342 341 339 337 336 335 333 330 327 326 327 329 330 332 334 336 336 336 337 340 342 343 344 343 344 343 339 333 330 326 326 327 327 327 327 327 327 327 328 328 328 329 330 330
350 349 346 342 341 341 340 339 340 340 341 342 342 343 343 342 343 344 344 344 344 344 344 344 344 344 344 344 343 342 343 343 343 344 343 343 344 344 344 343 342 341 338 337 336 336 337 335 333 330 327 327 328 329 331 333 334 333 334 338 340 341 342 343 342 342 342 338 333 329 326 326 327 327 328 328 328 328 328 328 329 329 330 330 330
350 349 346 344 342 341 340 340 341 341 341 343 343 344 344 344 345 344 344 344 344 344 343 344 344 345 344 345 344 342 342 343 343 344 344 344 344 343 342 341 340 338 337 336 336 336 337 336 335 333 331 329 327 328 328 329 329 329 334 338 340 341 341 342 342 343 344 339 329 326 326 326 327 327 327 327 327 327 327 327 328 328 329 329 329
350 349 347 345 343 341 341 341 341 342 342 344 344 344 343 345 346 345 345 344 343 344 343 344 344 344 344 344 345 344 343 343 342 344 344 343 342 341 339 338 337 336 336 336 336 336 335 335 335 334 334 332 330 328 328 328 328 331 337 340 340 341 341 341 342 343 344 338 326 325 326 325 326 326 327 327 327 328 328 328 328 329 329 329 329
350 349 347 345 343 342 342 341 341 342 343 344 345 344 343 344 345 346 345 344 343 343 344 344 344 344 344 344 344 344 344 343 343 342 342 340 339 337 337 335 335 336 336 336 335 335 334 334 332 332 332 332 332 332 331 330 330 333 339 341 341 342 342 341 342 342 339 333 328 328 327 327 328 328 329 329 330 330 330 331 331 331 331 331 330
350 349 346 345 343 342 343 341 341 342 344 344 345 344 344 344 344 345 345 344 343 344 345 345 345 345 344 344 344 343 343 342 341 340 339 338 337 337 336 336 336 336 336 335 336 336 336 335 332 331 331 331 331 332 333 333 335 336 339 340 342 344 343 342 342 342 338 332 330 330 330 330 329 330 330 330 331 331 331 331 331 330 329 329 328
349 347 345 347 345 343 342 341 342 342 343 343 344 344 344 344 344 344 344 344 344 344 345 345 345 344 344 344 343 342 341 340 339 338 338 338 338 337 337 337 336 336 336 337 337 338 338 337 335 335 334 333 333 335 338 339 339 339 339 340 342 343 343 343 343 345 342 332 329 330 330 330 329 329 329 328 328 328 328 328 327 326 325 324 324
348 348 346 346 346 344 343 341 341 342 342 343 344 344 345 345 344 344 345 345 345 345 345 345 345 344 344 344 343 341 340 339 340 338 338 338 338 338 338 338 337 338 338 337 337 337 338 339 339 340 340 339 339 340 342 343 342 340 339 339 342 344 344 344 343 345 342 331 329 330 329 329 328 327 327 326 325 325 325 324 323 322 321 321 321
349 350 347 345 346 345 344 343 342 342 343 344 345 345 345 345 344 345 345 345 344 344 345 344 345 345 345 344 342 340 340 340 340 338 338 338 338 338 339 338 338 337 336 336 338 339 341 342 342 342 342 342 342 343 343 343 343 342 341 341 343 343 343 344 343 343 340 331 329 329 328 327 326 326 325 325 324 324 323 322 322 322 323 323 322
349 350 347 345 347 346 345 344 344 345 345 344 344 344 344 344 344 344 343 344 344 344 345 344 344 344 344 345 342 340 338 337 337 337 337 337 338 339 338 338 337 337 337 338 340 342 343 343 342 341 341 341 343 344 343 342 343 343 342 343 344 343 342 342 344 344 337 330 328 327 326 326 325 325 324 324 324 324 324 324 325 325 325 325 326
349 350 349 346 346 346 346 347 346 345 346 346 346 345 344 343 343 344 342 342 344 345 345 344 344 344 343 342 340 338 338 337 336 336 336 337 338 339 339 339 339 340 342 344 344 345 345 345 345 344 342 341 342 343 343 341 341 342 342 343 343 342 342 342 345 344 335 328 326 325 325 325 325 324 324 325 325 325 326 326 326 328 330 332 335
349 349 350 348 346 345 345 347 347 345 346 348 348 348 345 344 344 344 343 342 343 344 344 345 347 346 343 341 342 342 342 339 337 337 337 338 339 341 342 342 344 345 346 347 347 347 347 347 348 347 344 343 342 341 342 341 340 341 342 343 343 342 343 344 344 344 339 331 326 325 325 325 325 325 325 326 326 327 327 329 333 337 340 342 343
350 349 350 351 349 346 345 346 346 346 346 347 347 347 346 346 346 345 345 344 343 343 343 344 346 345 343 345 347 347 344 341 340 341 341 342 344 345 346 346 346 347 347 348 348 349 348 347 348 347 345 344 342 340 342 342 341 341 342 341 342 344 344 343 345 346 343 335 327 326 326 326 326 326 326 327 328 330 333 338 342 344 346 347 347
349 349 350 351 351 349 348 346 346 347 347 347 348 347 346 346 346 346 346 345 343 344 344 344 344 343 342 344 347 347 345 344 345 345 345 346 347 348 348 348 347 347 349 348 349 349 348 349 348 347 346 345 343 342 343 343 342 342 342 341 341 343 343 343 344 344 342 336 329 326 327 327 327 327 329 331 334 338 342 344 346 347 348 349 349
348 349 350 350 351 350 350 349 349 349 348 348 350 350 350 348 347 347 348 347 345 346 348 347 345 345 344 344 346 347 347 348 347 347 347 347 348 349 348 348 347 349 349 348 349 349 349 349 349 349 347 346 345 344 343 342 342 342 343 342 342 342 343 345 345 344 343 339 335 330 327 327 329 332 335 338 341 343 344 345 347 349 349 349 349
348 348 349 349 350 350 351 351 350 350 348 348 350 350 351 351 349 349 349 348 348 348 349 348 348 347 346 345 346 346 347 348 348 349 349 349 349 348 348 348 347 349 348 347 348 348 348 348 349 349 348 347 346 345 343 341 341 343 343 342 343 345 346 347 346 346 344 341 342 338 331 331 335 338 341 342 343 344 344 347 349 349 349 349 349
348 349 349 349 349 350 351 351 350 350 349 348 349 349 350 350 350 350 349 348 348 347 348 349 350 348 346 346 347 346 347 348 349 349 349 350 350 348 349 348 345 347 347 349 350 347 347 346 347 348 348 348 347 345 344 343 341 341 342 342 344 346 346 345 342 344 344 342 345 344 341 341 341 343 346 346 345 344 344 346 347 348 348 348 347
348 349 349 349 350 350 351 351 350 350 349 348 347 348 350 350 350 350 349 348 347 347 347 347 347 346 346 347 348 347 346 349 350 350 349 347 348 348 348 347 346 347 348 349 349 348 347 346 347 348 349 349 346 345 344 343 343 341 341 343 344 346 346 345 344 346 345 345 345 345 348 347 343 345 348 347 346 343 340 341 341 343 345 345 343
348 349 349 349 349 350 350 350 350 349 349 349 349 349 350 348 349 349 349 348 347 347 344 341 341 343 344 346 346 346 346 348 349 350 349 346 346 347 346 346 346 347 348 348 348 348 347 346 348 348 349 348 345 345 343 343 345 344 343 344 346 348 347 346 346 346 345 345 345 345 347 346 343 345 346 345 345 345 342 342 341 338 338 340 338
348 349 349 349 348 349 349 350 350 349 349 350 350 350 348 347 348 349 349 348 347 347 345 341 340 340 341 343 343 342 344 347 349 349 348 347 347 346 346 346 346 346 347 347 346 347 347 347 348 347 348 346 345 345 345 345 344 345 345 345 347 347 345 346 345 343 344 344 343 343 344 344 346 347 345 343 344 346 346 349 350 342 335 333 333
348 350 349 348 348 349 349 350 351 351 350 351 351 350 348 348 348 348 347 347 346 347 347 346 345 344 342 343 343 343 344 347 349 350 349 349 348 347 347 346 346 347 347 347 346 346 347 347 347 347 347 346 344 343 344 344 342 343 344 343 345 345 345 347 346 344 344 344 343 343 343 344 347 347 346 344 342 343 345 350 352 348 344 337 332
349 349 348 348 349 349 349 350 351 351 352 352 352 352 349 349 349 349 348 347 347 347 348 349 349 350 347 342 343 344 343 345 348 351 351 351 349 349 348 346 346 348 349 349 349 347 346 347 347 347 348 346 345 343 342 343 342 344 345 342 344 345 344 346 345 343 343 343 344 345 342 342 344 344 344 345 342 341 346 351 350 349 352 347 337
349 349 349 349 349 349 349 350 352 351 349 349 351 352 350 350 349 350 349 348 348 348 349 350 351 353 349 341 342 343 343 346 348 350 351 351 351 350 348 347 346 348 349 348 350 349 347 346 345 346 346 345 345 345 344 344 342 344 343 342 344 344 343 345 345 345 344 342 342 344 343 342 344 343 343 345 344 343 346 348 345 345 349 348 342
348 349 349 349 349 350 350 351 352 349 345 344 347 349 351 351 350 351 351 348 349 348 349 351 351 352 348 341 342 342 342 345 347 350 351 350 352 350 347 346 347 349 350 350 350 349 346 345 344 345 346 345 346 345 345 346 344 344 343 342 344 345 344 345 345 345 345 343 342 343 344 344 345 345 343 345 345 344 344 344 341 342 345 346 344
348 349 349 349 350 351 350 350 351 347 343 344 345 349 353 352 351 352 352 350 350 349 349 349 349 350 346 342 342 342 342 344 344 347 348 348 350 348 347 348 348 350 352 351 349 348 346 345 345 347 348 347 348 344 344 346 344 345 345 343 344 346 346 347 345 344 343 342 343 344 343 344 345 344 342 343 344 343 342 341 340 342 344 346 345
349 350 349 349 351 352 350 350 351 347 345 347 349 351 353 352 351 352 352 352 351 349 348 348 348 349 346 343 343 342 342 344 343 344 345 348 350 349 348 349 348 349 350 349 347 346 345 345 347 349 349 348 348 345 343 344 342 344 345 344 345 347 347 348 346 345 344 341 342 343 343 343 344 343 341 341 342 343 341 339 341 343 343 346 346
350 350 350 350 352 353 351 352 352 348 349 351 352 352 352 351 350 350 351 352 351 349 349 348 349 350 346 343 344 343 343 344 344 344 344 347 350 349 348 350 349 347 347 347 346 345 345 347 347 348 349 349 347 343 343 346 345 345 346 345 346 347 347 346 345 345 344 341 342 343 343 343 343 341 342 343 342 341 340 340 342 342 342 344 345
351 351 351 350 352 353 352 354 352 349 351 352 352 352 351 350 349 349 350 351 351 350 349 348 350 351 345 342 344 343 344 345 344 345 345 346 348 348 349 349 347 346 346 346 345 345 348 351 349 346 348 350 347 342 341 347 348 346 346 346 345 346 345 344 343 343 343 341 342 342 342 342 341 341 343 344 343 339 340 341 342 342 343 343 343
351 351 352 351 352 352 351 353 352 351 351 350 351 351 351 351 349 349 349 350 351 350 351 350 351 351 347 345 345 343 346 347 346 348 348 346 347 349 351 349 347 346 346 347 347 347 349 351 350 349 349 349 349 345 342 345 346 346 347 346 345 346 346 344 342 342 342 342 341 342 342 341 340 342 343 343 342 340 339 340 339 341 344 343 343
351 351 352 351 352 353 351 352 353 352 351 350 351 350 350 351 351 350 349 350 352 351 352 351 351 351 350 350 346 341 347 348 346 351 351 346 346 349 350 350 348 345 346 350 351 350 350 350 349 351 351 350 350 348 346 346 344 346 349 347 347 346 346 345 344 343 342 342 341 341 341 342 342 342 343 343 341 339 341 342 340 339 341 343 344
351 351 352 351 353 353 350 350 352 352 350 349 349 348 347 351 352 352 351 352 352 351 351 350 350 351 352 353 348 343 349 350 346 350 351 345 345 347 347 349 349 347 348 351 351 350 351 351 350 352 353 351 350 347 347 348 344 344 347 348 348 347 346 346 345 343 342 343 343 342 342 343 343 341 342 343 341 341 343 344 343 341 340 342 344
351 351 352 350 354 354 349 348 350 351 349 346 346 346 345 349 351 351 352 352 352 352 352 351 350 351 352 353 350 347 350 351 350 350 349 346 345 346 345 347 349 348 348 349 351 351 351 352 351 350 349 349 351 349 347 349 347 346 347 346 345 346 347 348 346 344 344 345 344 343 343 342 342 342 342 343 343 343 342 342 344 344 343 344 343
350 350 351 351 353 354 349 347 348 351 349 343 344 346 344 346 347 350 352 352 353 353 352 351 350 351 352 352 352 350 349 350 351 349 346 346 346 345 344 345 348 350 349 350 353 353 352 353 350 346 345 345 349 351 349 349 349 349 348 346 347 346 346 348 348 347 348 347 345 344 343 342 342 341 341 343 343 343 342 341 343 344 345 345 344
349 349 350 351 354 355 351 348 348 352 349 341 342 345 345 345 346 351 352 350 352 353 353 353 352 353 353 353 353 351 349 349 349 346 345 346 345 345 345 344 347 349 350 351 353 352 352 351 346 343 345 345 346 348 350 352 351 350 349 348 348 347 346 347 346 347 349 348 346 344 345 344 344 342 341 342 342 342 342 342 343 344 345 346 346
348 348 349 351 355 355 353 351 348 350 348 341 340 344 346 346 347 352 352 351 352 350 351 353 353 354 353 353 353 351 350 349 347 346 346 346 345 345 345 345 348 350 351 352 352 351 350 347 346 345 345 346 344 344 349 352 352 352 350 347 344 346 348 348 346 347 347 346 347 347 346 346 344 344 344 344 343 344 344 344 344 345 345 346 347
348 348 349 351 355 355 354 352 348 349 348 341 340 343 347 346 347 350 349 351 352 348 349 350 349 350 351 351 351 350 351 350 349 347 345 346 345 345 346 347 351 351 351 352 353 352 351 350 352 350 346 345 345 344 346 349 350 350 350 347 346 348 350 348 346 348 347 347 347 346 346 346 345 346 347 346 346 346 346 346 346 346 347 348 346
Wind_Speed
14 13 13 11 13 14 14 14 13 12 11 10 9 9 8 8 8 7 8 7 7 8 9 10 10 11 11 11 11 13 14 13 13 14 14 15 15 15 16 16 16 17 18 18 18 18 18 17 17 18 18 19 19 18 18 17 18 19 19 19 19 19 19 19 18 18 18 18 18 18 17 17 17 17 17 17 17 18 18 17 17 18 18 17 16
15 14 13 12 13 14 13 13 12 11 10 9 8 8 8 7 7 7 7 7 7 8 8 9 10 11 11 11 11 12 13 13 12 13 14 15 14 14 16 16 16 16 18 19 18 18 17 16 15 16 17 18 19 18 18 17 18 18 19 19 19 20 20 19 18 18 18 17 17 17 17 17 17 17 16 16 16 17 17 17 17 17 17 17 16
16 14 13 12 12 13 13 12 11 10 9 9 9 9 9 8 7 7 7 7 7 8 8 9 10 10 11 11 11 12 12 12 12 13 13 14 14 14 15 16 17 16 18 19 18 17 16 15 15 16 16 17 18 18 18 17 17 18 18 19 19 20 19 20 19 18 18 17 17 17 17 17 17 17 16 16 16 16 16 16 16 16 17 16 16
16 15 14 13 12 13 13 11 10 10 11 10 9 9 8 8 8 7 7 6 7 7 8 8 10 10 10 10 11 12 12 12 12 13 13 14 15 15 15 16 17 17 17 18 18 16 15 14 14 15 16 17 17 17 17 17 17 17 18 19 18 18 18 19 18 17 17 17 17 16 17 18 17 17 17 16 17 17 16 16 16 16 15 15 15
16 15 14 13 12 13 13 11 11 11 11 10 8 9 8 7 7 7 7 6 6 7 7 8 9 10 10 10 10 11 12 12 12 13 14 15 15 15 15 15 17 17 17 17 17 17 15 13 13 14 15 16 16 16 16 17 17 17 18 19 18 18 18 18 17 17 17 17 16 16 17 17 17 17 16 16 16 16 16 16 15 15 14 14 13
16 15 14 13 13 13 13 12 12 11 9 8 8 9 8 7 7 7 7 7 7 7 7 8 9 9 11 11 11 12 12 12 13 13 14 15 15 14 14 15 17 17 17 17 17 17 15 13 13 13 14 15 15 15 16 17 17 18 18 18 18 18 18 18 17 16 16 16 16 17 17 16 16 16 16 16 15 15 15 15 15 14 13 13 12
15 15 13 13 12 12 12 12 12 10 8 7 8 8 8 8 7 8 7 8 8 8 7 7 8 8 11 11 12 13 12 13 14 14 14 15 15 14 14 15 17 17 17 17 17 16 15 14 13 13 13 14 15 15 16 17 17 18 18 18 18 18 17 17 17 16 16 16 16 16 16 15 15 16 15 15 14 14 14 14 13 13 12 12 11
14 14 13 12 12 12 12 12 10 9 8 7 8 9 9 8 7 8 7 8 8 8 7 8 8 9 10 11 11 12 12 13 14 14 14 14 15 15 15 16 16 16 17 16 16 15 14 13 13 13 13 13 14 15 16 17 18 18 18 18 18 18 17 16 16 15 16 16 15 15 14 14 14 14 14 13 13 13 13 12 12 12 11 10 10
14 13 13 12 11 12 11 11 9 9 8 8 9 9 9 8 7 8 7 8 9 9 9 9 10 10 11 11 11 11 11 12 14 14 14 14 15 15 15 16 16 16 16 15 15 15 13 12 12 12 13 13 14 15 16 17 18 18 18 18 18 17 16 16 15 14 14 14 14 14 13 12 12 12 12 12 12 11 11 11 10 10 9 9 8
16 13 12 12 11 11 11 10 9 9 8 8 9 10 9 8 8 8 8 9 9 9 10 10 11 11 11 11 11 11 10 11 13 14 14 15 16 15 16 16 16 16 16 15 16 15 14 12 12 12 12 13 14 15 16 17 18 18 17 16 16 17 15 15 14 13 13 13 13 12 11 10 10 10 11 11 10 10 10 9 8 8 7 7 8
17 13 12 12 11 10 10 10 10 9 8 9 10 10 9 8 9 9 9 9 9 9 10 11 11 12 12 12 12 12 11 12 13 14 15 15 16 16 16 16 17 16 16 16 17 16 15 14 13 13 13 13 13 14 15 17 17 17 15 14 16 17 14 15 14 13 13 12 12 11 10 9 9 10 10 9 9 8 8 7 7 6 6 7 8
16 13 12 11 11 10 10 10 10 9 8 10 11 10 9 8 9 9 9 9 10 10 11 11 11 12 13 12 13 13 12 13 13 14 16 15 16 17 17 17 18 17 16 16 16 16 15 13 13 13 13 13 14 15 15 16 16 16 16 15 17 16 14 16 14 13 13 11 11 10 10 9 9 10 10 9 9 8 8 7 7 7 8 8 9
15 13 13 11 11 10 10 10 10 8 9 11 11 9 9 8 8 8 9 9 10 11 11 11 12 12 13 13 13 14 14 14 14 14 16 17 17 18 17 18 18 17 16 16 15 14 14 13 13 13 14 15 16 16 16 16 15 15 16 16 16 16 15 15 12 11 11 10 9 9 9 8 8 9 9 9 9 8 8 8 8 8 9 9 8
14 14 13 11 11 11 11 10 9 9 10 12 10 9 9 9 8 8 10 11 11 11 12 12 13 12 13 14 13 14 14 15 15 16 17 18 19 18 18 18 18 17 16 15 15 14 14 14 13 13 14 16 17 17 17 16 15 15 16 16 16 17 16 13 11 11 9 8 8 8 8 7 7 8 9 9 8 8 8 8 8 8 8 8 8
13 14 13 12 11 11 10 9 9 9 10 11 10 9 9 9 10 10 11 12 12 13 13 13 13 13 13 14 14 14 15 16 16 17 18 20 20 20 20 19 18 17 16 15 15 15 16 15 15 15 15 16 16 16 16 15 15 16 15 14 15 16 15 12 10 10 8 7 8 7 7 6 7 7 8 8 7 7 7 7 7 7 7 6 6
15 14 13 12 12 11 11 10 10 10 11 11 10 10 10 11 11 12 12 12 12 13 14 14 14 15 15 15 15 15 17 18 17 17 18 20 20 19 20 19 18 17 17 16 16 17 17 17 17 17 16 16 15 15 15 15 14 14 13 12 14 15 15 12 9 8 7 6 7 7 6 6 6 6 6 6 6 7 6 6 6 6 6 5 5
16 15 13 13 12 12 12 12 11 11 11 11 12 12 13 12 12 14 14 13 13 14 15 15 16 16 17 17 17 17 18 19 18 18 18 18 18 18 19 19 18 18 17 17 17 17 17 18 17 17 17 16 15 15 14 14 14 14 15 16 18 17 16 13 9 9 7 5 6 6 5 5 5 4 5 5 5 6 6 6 5 5 4 4 4
16 14 13 13 12 12 12 13 13 12 12 12 13 14 14 13 14 15 15 14 15 16 17 17 18 18 18 18 18 17 18 18 17 18 18 18 17 18 19 19 19 19 18 18 18 17 17 17 17 17 17 16 15 15 15 15 15 15 18 19 19 17 15 13 10 9 4 3 5 5 5 4 3 3 3 4 4 4 4 4 4 3 3 3 2
17 14 12 14 14 13 13 13 13 13 13 13 14 14 14 14 14 15 16 16 16 18 19 19 19 19 19 19 19 18 17 17 17 17 17 17 17 18 19 19 19 19 19 18 18 17 17 17 17 17 17 16 16 15 15 15 15 17 18 18 18 16 15 13 10 7 1 2 5 4 4 3 2 2 2 3 3 3 3 3 2 2 2 2 2
16 13 12 14 14 14 14 14 14 13 14 15 15 15 15 16 16 17 17 17 18 19 20 19 19 19 20 19 19 19 19 18 17 18 18 18 18 18 18 18 19 19 19 18 18 17 16 16 17 17 17 16 15 15 14 14 13 14 15 16 16 15 14 11 6 3 1 4 6 4 4 3 2 2 2 2 2 2 2 2 2 2 2 2 2
16 13 13 14 14 14 15 16 15 14 16 16 16 16 16 17 17 18 18 18 19 20 20 20 20 19 20 20 19 19 19 19 18 18 18 19 18 17 18 17 17 17 17 18 17 16 16 16 16 16 16 16 15 15 14 13 12 11 11 13 14 14 12 8 4 4 4 7 6 6 5 4 3 2 2 2 2 3 2 2 2 2 2 2 2
17 14 14 15 15 16 16 16 15 15 16 17 17 18 18 18 18 19 19 20 20 20 20 19 19 19 19 19 19 19 19 19 18 18 18 18 18 17 17 16 16 16 17 17 17 16 16 15 14 14 14 14 14 15 15 14 12 11 11 12 14 13 9 7 7 4 5 8 8 8 7 5 5 3 3 2 3 3 3 3 3 3 3 2 2
19 16 15 15 15 16 16 15 14 16 17 18 18 18 18 19 19 19 19 20 20 19 19 18 18 17 18 18 19 19 19 19 17 17 18 17 17 16 16 15 16 16 16 16 16 15 14 14 13 13 12 12 13 14 14 13 13 11 11 13 13 11 8 7 6 1 4 10 9 9 8 5 5 3 3 3 3 4 4 4 4 4 4 4 4
20 17 15 16 16 16 17 16 15 17 18 18 18 18 18 19 19 19 19 19 19 19 17 17 16 16 16 17 18 19 18 18 17 16 16 16 16 16 15 15 15 16 16 15 14 13 13 13 13 12 12 12 13 12 11 13 13 12 12 12 9 8 7 6 3 3 6 11 10 9 7 5 4 3 3 3 4 5 5 6 6 6 6 7 7
20 19 16 16 17 17 18 18 17 16 17 18 18 18 18 18 19 19 20 20 19 18 17 16 16 15 15 16 18 19 18 18 16 15 15 15 15 15 15 15 15 13 13 13 12 11 12 12 12 12 12 11 11 9 8 10 10 10 10 9 7 6 6 6 4 6 8 10 10 9 7 6 4 4 4 4 5 6 7 7 7 8 8 9 9
18 20 18 17 17 17 17 18 17 16 17 17 17 17 17 18 19 20 20 20 19 19 17 16 16 15 15 16 18 19 17 16 16 15 14 15 15 15 14 12 12 11 10 11 10 8 9 9 9 10 10 11 10 8 7 6 7 7 7 8 8 7 5 7 5 6 10 11 10 8 7 6 5 4 5 5 6 7 8 8 9 9 10 10 10
18 19 19 18 17 17 17 17 17 18 17 15 15 16 17 18 18 19 20 19 19 19 17 17 16 15 15 16 16 15 15 14 15 15 14 14 14 13 12 10 10 9 9 10 9 8 8 8 9 10 10 9 8 9 9 7 6 6 6 7 6 6 5 6 5 7 11 12 10 9 7 6 6 6 6 7 7 8 9 10 10 10 11 10 10
17 18 19 19 18 17 19 18 17 19 17 15 14 15 16 16 16 18 18 18 19 18 18 17 16 14 14 14 13 12 13 14 14 14 14 13 13 12 11 10 9 8 9 10 9 8 8 9 10 11 10 8 7 7 9 8 6 7 8 8 8 8 5 5 7 5 9 10 10 9 8 8 8 8 8 9 9 10 10 10 10 10 11 11 11
17 17 18 19 18 18 20 19 18 18 16 15 13 13 14 15 16 16 15 15 17 17 17 16 16 15 14 14 12 11 12 12 12 12 12 11 11 10 10 10 9 9 9 8 8 7 8 9 10 11 9 8 7 5 7 7 7 7 7 9 9 9 7 8 9 3 5 10 12 11 10 10 9 10 10 10 10 10 10 10 11 11 12 12 12
16 17 18 18 18 18 19 18 17 16 16 16 15 13 12 13 14 14 14 15 15 15 14 13 14 14 14 14 11 10 10 9 10 10 10 10 10 10 10 9 7 6 5 5 7 7 8 8 8 10 9 8 6 6 6 5 7 7 6 7 7 8 9 8 7 5 5 9 13 13 12 11 11 12 12 12 11 10 11 11 12 12 13 14 14
16 17 18 19 20 19 19 18 17 16 16 17 16 15 14 14 14 13 14 15 14 14 13 12 12 11 13 13 11 10 10 9 10 10 9 10 10 9 8 6 6 6 5 6 7 8 9 7 7 9 10 9 7 6 8 6 6 7 7 7 6 6 7 7 7 7 6 7 12 14 13 13 13 14 15 15 14 12 12 12 13 14 15 15 16
16 17 17 18 19 18 18 18 18 17 16 17 17 16 15 15 15 14 15 16 14 12 12 12 13 14 16 15 14 12 11 11 11 8 9 10 9 9 7 5 7 7 7 9 9 8 9 8 8 10 12 10 6 6 8 6 5 6 7 7 6 6 6 8 8 4 6 8 11 13 14 14 13 14 15 16 16 15 13 13 14 15 16 16 15
16 17 17 18 18 18 18 17 18 18 17 17 16 16 14 14 15 15 15 15 14 12 10 12 15 16 17 15 14 14 13 12 11 8 8 9 9 8 7 6 7 9 9 10 10 8 8 8 9 10 11 9 5 6 7 5 6 7 7 7 6 7 7 8 6 5 8 10 8 9 12 13 12 12 13 14 16 17 16 16 16 15 15 15 14
16 17 18 18 18 17 17 17 18 18 17 16 15 14 13 14 15 15 15 14 14 13 11 14 15 14 14 14 13 12 12 12 12 9 7 7 8 6 7 7 7 9 9 9 9 10 10 9 9 9 10 10 6 6 8 5 6 7 7 6 5 5 6 7 5 5 7 5 5 7 8 9 12 14 13 14 15 16 18 18 18 18 17 15 14
16 17 17 17 17 17 16 17 17 17 17 17 15 14 14 14 13 13 14 13 14 13 12 13 13 12 12 12 11 11 12 12 12 10 8 7 7 6 7 7 8 9 9 9 10 11 11 10 9 9 10 10 6 5 6 4 2 6 9 7 7 6 6 6 5 7 7 3 6 9 8 8 12 15 14 15 15 14 15 16 17 20 19 16 14
17 17 17 17 16 16 16 17 17 17 17 17 16 15 15 14 13 13 13 12 12 12 12 11 11 11 11 11 10 10 11 12 12 11 9 7 5 5 6 6 8 9 9 11 11 10 10 10 10 10 9 10 10 6 6 6 4 6 7 6 8 8 5 6 5 6 5 2 5 8 10 11 11 11 10 13 16 14 13 14 14 17 18 18 16
17 17 16 17 16 16 16 16 16 16 16 18 17 15 16 15 14 13 13 13 11 11 12 11 10 10 9 10 10 10 11 11 14 13 10 7 3 4 5 5 7 7 8 10 10 8 9 10 10 11 10 10 10 6 4 4 5 5 6 5 7 5 5 7 5 4 4 4 4 5 8 11 11 11 8 7 14 15 12 11 12 13 14 16 17
16 16 16 17 16 16 16 16 15 15 15 17 17 15 16 16 14 12 12 13 10 10 13 11 11 10 8 10 10 10 11 12 15 14 12 9 5 5 5 6 6 6 7 8 8 7 8 9 9 10 12 12 11 6 4 3 3 6 6 5 5 5 5 6 6 6 7 7 8 6 7 11 11 12 9 6 11 14 12 11 11 11 12 13 16
16 16 16 16 16 16 17 16 14 14 15 15 16 16 15 13 12 11 10 11 10 10 12 11 10 9 7 9 9 9 11 12 14 13 12 10 7 6 5 6 7 7 7 7 7 6 6 7 8 10 12 12 11 7 5 5 4 8 8 5 7 6 5 6 7 7 5 5 8 8 7 12 10 8 8 6 7 10 11 11 11 11 11 11 14
16 17 17 16 16 16 16 16 13 13 14 14 14 14 13 12 12 11 10 11 9 10 11 9 8 7 6 8 9 9 10 11 11 11 11 9 7 6 5 6 7 7 7 6 7 5 5 8 9 11 11 10 8 4 5 5 4 7 9 7 7 6 5 6 5 6 5 5 10 10 7 8 6 4 6 4 3 7 10 9 10 11 10 9 11
16 17 17 16 17 16 16 15 12 12 14 14 14 13 11 13 13 11 13 12 8 9 9 8 7 6 6 7 8 8 9 9 8 8 10 9 8 7 6 6 5 6 5 5 7 4 5 8 8 8 8 8 6 3 3 5 6 7 8 7 7 7 6 4 3 4 5 5 9 9 6 7 4 3 5 7 6 5 9 9 8 9 10 9 10
18 17 17 17 16 16 17 16 13 13 14 13 13 12 11 12 13 12 13 13 10 8 7 8 8 7 7 7 8 8 8 8 7 7 7 8 8 7 6 6 5 5 4 4 6 5 5 6 6 7 7 7 4 2 5 6 6 7 8 9 7 6 4 2 3 4 4 4 4 4 5 7 4 4 6 9 8 6 9 10 8 9 10 9 11
18 18 17 17 16 16 17 16 14 14 14 14 13 12 11 10 11 12 11 11 10 8 7 8 8 7 7 7 7 7 7 7 7 7 7 7 7 6 6 5 5 5 5 4 5 6 6 5 6 8 7 7 5 2 5 5 8 8 7 9 9 7 5 2 4 7 8 7 5 4 5 4 3 7 7 5 6 9 11 10 9 10 10 9 10
19 18 18 18 17 17 18 16 15 14 14 15 14 12 12 10 9 10 10 10 10 9 8 7 7 7 7 7 7 7 7 6 7 6 5 5 7 7 6 5 4 5 6 5 6 6 5 5 6 6 5 7 7 4 3 4 8 8 6 9 9 7 6 4 5 10 10 7 5 6 6 3 4 7 6 2 5 9 10 9 9 10 10 12 11
19 19 19 18 17 18 18 17 16 15 14 15 16 14 13 12 11 12 14 13 11 10 9 8 9 9 7 6 7 8 7 6 7 6 4 5 6 6 6 5 4 5 7 6 7 6 4 5 4 4 4 6 7 7 5 3 4 5 6 9 8 6 6 4 3 7 8 7 4 3 3 3 3 2 2 1 4 9 11 11 10 9 9 13 15
19 19 19 18 17 18 19 18 17 15 13 14 16 15 15 14 12 12 14 12 11 10 8 8 10 9 8 7 7 8 7 6 6 6 5 5 5 5 5 5 5 5 5 5 6 5 2 3 3 3 4 3 5 9 8 4 3 5 6 7 7 5 5 3 3 5 5 4 4 2 1 2 0 3 3 2 3 7 9 10 11 11 10 12 15
20 19 19 18 18 19 18 18 18 15 14 14 14 14 15 14 12 10 11 11 11 11 9 9 8 8 9 8 6 7 7 6 6 5 5 5 5 5 5 4 5 5 4 5 5 3 3 2 2 3 2 2 5 8 8 6 5 5 4 4 5 3 3 2 4 5 3 2 3 3 1 1 1 4 6 3 2 4 7 7 7 11 12 12 14
20 20 19 19 19 19 18 18 18 16 14 14 14 14 14 14 13 11 10 11 11 10 11 11 9 8 10 9 6 6 6 6 6 5 4 5 4 4 4 4 5 4 4 5 3 3 3 1 1 3 2 4 5 6 7 6 6 5 4 6 5 2 1 1 2 3 3 3 4 5 1 1 2 1 2 1 2 5 7 4 4 7 10 13 16
20 20 19 20 20 20 19 18 18 18 15 14 14 14 13 14 13 12 11 11 11 10 11 11 9 8 10 9 7 6 7 7 6 5 4 4 4 4 4 4 4 3 4 4 1 1 2 2 2 3 3 4 5 5 5 4 5 4 2 5 6 3 3 2 1 2 2 2 3 4 3 4 3 1 2 3 1 5 5 5 5 4 5 11 15
20 20 20 21 21 20 20 19 19 18 17 15 15 14 13 13 13 13 12 10 10 10 10 10 9 9 9 8 7 7 7 7 6 5 4 4 4 4 4 4 4 3 3 5 2 1 2 2 3 2 3 4 3 6 7 2 2 4 3 1 3 3 3 2 1 2 3 1 2 3 3 4 4 2 1 2 3 5 5 6 7 5 5 10 11
21 20 20 21 21 21 21 20 19 18 16 15 16 16 14 14 13 14 13 10 10 11 11 10 10 10 10 9 8 6 5 5 5 4 4 4 4 4 4 4 5 4 4 6 5 4 3 3 4 3 2 3 3 5 6 3 2 4 3 1 2 2 3 2 1 3 4 4 4 4 2 2 3 3 4 4 2 3 5 5 5 5 7 8 9
Wind_Direction
128 126 119 117 108 102 104 107 104 100 99 99 99 100 104 105 106 106 103 104 106 100 100 100 100 105 111 115 113 108 107 106 105 109 109 108 109 108 107 106 105 106 103 100 99 101 103 106 110 109 106 102 100 100 100 98 100 101 100 98 96 95 94 93 91 91 90 90 90 89 87 86 87 88 90 90 91 90 90 91 91 92 92 90 90
131 128 119 114 106 104 105 106 103 105 105 103 104 104 105 105 110 111 105 106 105 101 102 102 104 108 109 111 110 105 104 105 106 110 110 110 112 111 112 107 103 104 101 99 99 102 104 106 105 105 104 102 99 100 100 98 100 102 100 98 95 94 95 97 96 93 91 91 91 91 91 89 89 90 91 92 91 91 92 92 92 92 91 91 89
130 125 119 115 110 107 103 105 108 110 110 108 106 100 101 102 106 104 100 101 105 106 105 105 108 109 109 111 111 108 106 106 108 110 112 113 113 113 112 107 107 106 102 102 101 102 105 105 100 102 105 102 100 99 100 100 101 101 100 98 97 95 96 97 97 96 94 92 91 92 94 93 91 92 91 91 91 91 92 92 91 91 90 90 89
127 123 119 114 111 110 106 110 113 114 112 109 105 100 100 103 104 98 99 103 109 110 107 111 113 113 115 115 112 113 113 112 110 111 113 114 115 115 112 109 109 108 105 104 103 103 105 105 101 102 106 104 102 100 101 102 102 101 100 98 98 97 95 95 96 95 94 92 92 92 92 93 92 91 92 93 93 92 92 91 90 89 89 89 88
123 120 115 109 109 112 113 115 113 112 109 106 102 102 100 102 103 104 111 112 115 116 114 117 120 119 116 116 117 118 118 117 114 114 115 116 118 116 114 112 110 109 107 105 105 105 104 107 105 103 105 105 104 103 102 102 103 103 102 101 99 95 94 95 95 94 93 93 93 92 90 92 93 92 93 93 94 94 93 92 90 88 88 87 88
120 117 113 107 109 111 112 112 109 106 104 104 99 100 103 105 108 114 121 120 123 125 123 119 119 119 116 120 124 121 120 119 114 115 117 118 119 116 115 112 110 108 106 106 106 104 102 106 109 107 105 106 105 104 105 104 104 104 104 103 101 96 94 95 95 95 95 94 94 93 91 91 93 94 94 93 93 94 94 93 91 89 87 85 86
119 116 114 109 110 111 110 110 108 109 107 105 101 103 108 109 110 117 127 128 128 126 126 121 117 116 118 124 125 123 123 120 117 120 120 120 120 116 114 112 110 110 108 108 105 102 102 106 110 112 109 106 106 106 106 107 106 105 106 105 101 95 92 93 96 97 96 96 96 94 93 92 93 93 94 95 94 94 93 91 90 89 86 83 82
119 116 114 110 112 112 110 111 111 115 115 110 104 105 106 106 110 117 126 133 134 130 129 125 121 120 122 123 118 118 120 119 121 123 121 121 122 119 116 113 112 111 110 107 104 101 102 108 112 116 115 110 108 108 107 108 108 108 108 105 100 96 92 92 95 95 94 95 94 94 93 92 93 95 96 96 94 93 92 89 89 89 87 83 80
117 116 115 110 112 113 110 110 111 113 112 108 101 99 101 105 113 119 123 129 134 133 132 126 124 125 123 121 118 118 119 120 120 121 122 125 125 121 118 115 115 114 110 106 103 100 102 110 115 119 118 115 112 110 109 110 110 109 108 104 101 97 95 96 93 89 90 91 91 92 91 93 95 97 98 97 95 94 93 90 88 87 87 84 81
114 117 115 112 114 115 113 111 110 107 103 101 97 96 101 110 113 114 117 120 126 128 130 126 124 126 124 124 124 124 125 124 120 119 125 129 126 122 121 119 119 115 110 106 101 98 101 109 115 118 119 120 118 114 113 114 113 110 105 102 100 93 92 93 90 89 88 88 89 89 88 92 98 101 100 99 100 98 94 92 90 87 87 89 89
117 119 113 115 116 114 113 111 110 107 103 101 95 94 98 105 104 104 108 111 116 123 126 123 124 125 126 127 126 126 125 123 120 118 123 127 126 126 125 122 119 114 110 107 102 102 103 107 113 117 120 122 122 120 118 117 115 110 105 104 101 95 92 90 88 91 89 89 90 90 89 88 92 100 103 101 103 100 97 96 94 95 96 96 96
122 120 114 115 115 113 111 109 108 104 100 96 91 93 97 99 98 101 107 109 113 119 123 123 124 124 125 127 126 126 123 120 119 120 123 126 127 127 125 123 119 114 111 107 104 103 102 106 113 117 119 121 125 125 123 121 118 113 108 107 102 99 96 90 90 93 94 92 88 86 82 81 88 98 103 102 102 101 103 104 102 103 100 98 97
121 117 116 115 116 115 112 109 106 104 96 91 91 95 98 99 99 103 110 116 117 118 122 123 125 125 124 125 124 123 121 121 122 121 122 125 125 125 123 123 120 116 112 107 105 105 104 105 109 117 120 120 124 126 126 123 119 113 109 108 102 95 89 88 93 95 95 93 83 78 73 76 90 96 100 102 104 105 106 105 103 102 99 98 99
121 115 115 116 116 113 110 108 106 102 93 92 98 102 101 100 103 108 111 114 117 119 123 125 126 125 124 124 123 123 122 122 122 122 123 123 122 122 124 124 122 120 116 113 112 109 107 105 106 114 120 121 123 125 126 122 116 111 108 108 102 92 86 88 93 92 92 93 85 76 72 74 84 90 94 99 100 102 101 101 101 101 100 98 97
119 114 115 115 112 109 108 104 102 99 96 101 105 102 96 95 101 107 108 110 115 120 122 124 125 124 122 121 124 125 121 118 120 123 124 123 123 126 127 126 124 122 121 119 115 109 104 103 102 107 116 121 121 122 121 119 116 112 110 109 104 99 97 95 93 98 99 93 86 78 76 77 82 89 93 96 99 98 96 98 98 98 97 93 94
114 113 113 112 109 106 104 98 99 100 100 103 102 97 90 92 100 104 105 107 113 119 120 121 121 121 120 119 121 121 116 116 119 121 121 120 123 125 124 123 123 122 121 118 113 107 102 98 97 100 108 115 119 119 117 114 113 109 106 102 97 95 95 88 76 83 88 88 91 86 84 86 88 94 98 100 101 101 99 98 97 95 95 95 95
112 115 113 112 111 107 101 97 100 104 103 100 98 95 93 96 101 105 106 105 110 117 118 120 119 118 120 120 119 118 115 116 118 119 118 118 121 119 117 119 121 121 119 116 111 106 101 98 97 97 100 105 109 110 109 108 105 102 100 95 90 89 90 87 67 58 62 72 90 92 88 91 95 100 103 105 103 102 102 98 97 99 101 102 96
110 115 116 113 111 107 104 104 106 108 107 102 96 93 95 102 105 108 108 107 109 113 117 118 117 116 118 118 116 114 112 113 114 114 114 116 118 116 116 117 118 120 118 113 109 105 102 100 97 97 97 97 99 101 102 102 102 100 98 94 90 91 91 91 80 73 70 50 70 82 85 88 91 101 101 101 104 101 101 99 100 106 105 101 95
110 114 115 112 109 106 107 108 110 110 106 99 95 95 100 104 107 109 108 108 109 111 115 116 115 115 115 115 114 112 109 109 110 112 114 115 117 117 116 116 118 119 115 111 107 105 102 100 98 96 95 95 95 97 99 99 101 100 97 95 94 93 88 89 93 100 128 14 56 68 70 76 75 87 95 91 94 94 93 94 92 94 90 77 60
114 116 115 111 107 107 111 111 111 108 102 98 97 100 103 105 107 110 109 110 111 112 114 115 116 115 115 115 113 113 111 111 113 113 115 114 115 115 115 115 117 115 113 110 107 104 100 99 98 97 97 97 96 95 96 95 95 96 96 96 95 89 85 95 112 109 75 42 54 59 54 57 59 53 66 71 72 72 66 61 51 39 33 29 22
118 122 122 116 109 108 111 111 110 107 104 103 104 106 106 107 109 110 112 113 113 114 115 115 115 115 115 115 113 113 114 114 115 115 116 116 115 113 113 113 114 114 112 109 106 102 99 97 97 98 98 97 94 88 84 83 85 88 93 94 88 81 80 89 75 31 24 43 44 44 46 36 36 23 24 41 48 56 57 55 40 28 22 12 10
122 126 127 124 116 112 111 111 112 107 105 108 109 111 110 111 112 113 116 116 117 117 116 115 112 113 115 115 114 115 116 115 115 116 117 117 116 114 112 112 112 112 109 107 105 101 96 93 94 96 95 95 91 86 81 77 76 78 84 86 83 81 82 80 72 46 359 28 33 30 32 24 27 19 14 34 56 64 66 64 46 37 35 25 25
125 128 127 123 119 115 112 112 113 105 107 112 112 112 113 115 117 118 120 120 120 118 117 116 114 114 115 116 117 118 118 116 116 117 118 117 116 114 110 108 108 108 106 102 98 95 90 85 87 86 87 91 82 81 80 70 71 71 69 72 76 80 81 77 80 121 351 21 26 24 25 21 25 28 36 57 71 72 67 62 57 50 49 51 49
126 129 126 122 120 118 115 114 114 109 107 110 111 112 115 118 120 120 121 121 120 119 118 115 115 117 118 117 118 120 118 116 118 118 117 115 113 111 108 105 104 103 102 98 89 84 84 84 86 80 79 83 74 74 68 58 63 64 60 63 71 74 75 85 54 345 6 18 19 23 26 28 33 45 59 71 74 74 73 67 64 64 62 62 59
127 129 127 122 122 123 123 122 122 117 109 106 110 111 115 119 120 121 123 124 123 121 117 115 114 115 117 120 121 120 117 116 117 118 118 115 111 109 108 106 104 102 98 92 86 81 84 85 84 78 73 67 63 70 62 51 55 59 64 65 75 77 66 84 53 355 16 20 18 26 29 35 44 54 64 70 75 72 71 68 66 68 67 65 65
128 131 130 123 124 132 134 130 127 121 111 107 108 108 112 117 118 120 122 125 125 122 119 116 111 110 114 120 122 120 117 115 115 119 120 116 111 108 107 104 99 95 86 80 83 85 84 81 77 76 73 63 58 70 76 71 68 70 78 70 74 83 59 58 46 4 24 25 20 32 35 38 44 53 63 64 68 70 66 69 69 69 70 67 67
128 130 130 127 128 134 133 129 129 126 121 115 109 108 111 114 117 119 120 121 121 121 122 119 115 117 119 118 117 115 115 116 116 121 121 115 109 103 99 95 94 93 84 76 78 79 77 81 85 84 80 76 75 82 93 101 83 75 85 84 84 83 63 55 44 3 16 26 23 33 37 38 46 46 56 60 60 65 67 71 72 69 68 63 58
127 129 129 131 135 133 127 127 131 130 128 123 112 111 115 114 118 120 121 123 123 123 122 120 118 120 121 121 120 119 121 120 116 118 116 108 102 99 97 94 93 87 76 67 66 70 73 75 79 87 92 93 90 78 84 93 83 72 76 84 85 81 74 67 68 14 358 24 26 32 40 38 47 49 51 58 61 67 69 69 68 63 58 52 45
129 132 130 133 138 133 124 125 129 126 123 123 118 119 123 119 119 121 122 124 125 125 122 119 115 112 112 113 116 122 127 119 113 116 113 107 101 96 94 90 83 71 68 65 62 63 67 68 71 82 90 94 105 98 87 92 85 71 66 74 73 72 73 67 77 63 351 32 37 36 45 45 49 54 55 59 61 63 63 61 56 51 45 38 33
131 132 132 132 134 130 124 123 126 124 123 128 131 134 131 123 122 123 121 121 122 123 122 120 115 114 110 107 114 124 127 121 116 116 107 103 101 90 84 88 90 85 93 100 89 74 67 72 81 86 88 95 112 110 93 88 83 77 77 82 67 53 64 68 76 66 17 33 46 43 46 53 54 54 54 53 52 51 51 50 46 39 32 26 21
130 130 131 130 129 130 130 129 129 131 136 137 136 138 133 127 125 124 123 123 121 122 127 129 127 129 125 126 133 128 128 128 118 113 105 98 98 100 102 109 117 118 117 102 92 86 86 92 92 91 97 95 93 98 97 90 82 84 90 91 77 58 60 77 97 80 33 30 49 47 46 50 53 53 48 42 39 41 42 40 36 29 23 20 16
132 130 132 130 129 133 132 132 134 137 142 139 136 136 131 128 128 128 128 124 121 130 140 143 146 145 139 140 139 136 141 131 116 115 115 111 114 122 123 120 114 108 97 91 88 85 90 99 97 95 93 81 70 97 104 95 85 92 97 91 77 72 68 79 97 74 34 45 45 41 40 38 40 40 34 33 33 34 36 34 31 26 21 17 14
133 132 134 132 132 135 133 133 136 135 135 135 133 129 128 130 133 133 130 126 128 140 151 149 150 147 143 144 144 151 152 133 123 124 121 125 130 129 123 112 105 98 89 91 93 85 86 96 98 100 97 84 70 89 98 93 94 97 96 94 81 79 85 87 84 55 53 54 34 30 30 19 19 23 24 33 36 36 36 33 30 25 21 19 15
134 135 135 135 135 135 134 133 133 133 134 133 130 129 135 137 135 131 128 132 136 143 150 144 142 144 143 143 146 152 144 128 124 120 118 122 116 116 114 107 103 101 93 89 93 97 102 105 103 107 105 97 77 75 93 97 98 109 104 98 92 78 83 92 87 78 79 54 19 38 34 18 26 33 40 44 39 39 38 34 31 27 22 20 21
136 137 137 137 137 137 136 135 134 136 138 135 133 136 138 136 133 131 132 138 139 141 144 138 138 141 141 141 141 141 134 126 116 105 101 103 101 106 107 104 102 99 92 84 87 96 102 103 108 110 101 103 101 78 90 98 112 124 113 95 95 100 83 83 92 83 85 73 42 51 53 48 37 34 45 43 31 34 37 30 29 30 26 25 30
138 138 138 137 138 139 138 138 137 139 138 135 136 137 139 140 138 136 136 136 135 137 138 138 139 138 141 142 139 137 135 132 123 111 99 93 95 97 99 108 104 96 91 86 82 90 100 103 111 107 99 117 124 103 86 98 114 115 113 101 92 106 86 65 107 115 101 95 39 32 41 50 42 38 52 39 22 26 38 29 28 33 29 29 34
141 139 139 139 139 139 139 139 139 140 141 139 139 141 144 142 139 139 139 137 141 142 139 142 139 139 149 146 142 141 140 138 130 122 111 106 108 101 108 115 107 101 95 91 85 88 99 106 114 102 95 111 108 99 110 107 115 111 115 109 69 82 111 91 118 128 80 79 72 30 32 50 52 51 59 37 18 18 27 27 31 37 28 28 34
143 141 140 141 139 138 141 143 142 144 146 146 144 144 140 134 136 143 139 138 148 147 141 143 141 148 162 150 147 145 143 141 133 130 130 135 139 129 125 111 109 112 97 89 81 77 88 102 112 96 88 87 65 66 139 116 108 114 115 125 85 76 121 103 81 65 52 61 91 83 39 49 55 48 46 38 23 16 17 21 27 38 32 32 40
146 146 143 142 141 143 148 148 146 149 150 150 147 138 129 130 140 143 135 135 147 152 149 153 152 154 160 150 151 150 148 146 142 142 143 148 147 133 125 111 110 112 98 90 76 66 85 98 101 93 88 80 59 59 94 74 84 100 93 115 117 96 92 92 71 73 77 41 71 89 41 42 54 46 46 55 40 19 15 17 17 34 41 33 43
151 150 146 146 144 147 154 152 152 154 150 146 142 135 129 137 146 144 143 139 151 170 165 162 164 161 160 156 156 153 150 149 150 152 146 144 141 130 128 123 120 122 116 109 94 78 91 101 100 94 84 73 71 82 73 68 102 100 89 95 106 93 83 97 79 82 109 52 59 81 48 44 70 54 47 67 60 8 360 8 9 21 36 24 34
155 153 151 152 150 150 152 151 155 157 149 141 138 137 142 150 152 154 153 145 162 186 169 156 162 171 171 161 157 153 152 152 151 152 145 137 133 134 140 135 132 134 119 102 102 100 104 106 105 97 86 75 75 100 116 123 126 115 111 108 103 87 76 107 124 112 112 63 64 80 50 53 74 12 32 53 60 20 355 12 15 16 32 27 26
158 157 157 156 156 155 152 154 161 158 150 145 140 142 156 164 160 159 156 154 168 179 163 156 155 166 175 162 159 158 154 155 148 144 144 138 133 139 146 136 131 136 123 107 115 128 114 95 100 106 106 104 82 106 150 136 114 125 131 123 115 96 85 124 139 143 143 108 93 72 49 73 68 347 24 47 43 23 8 19 25 26 34 31 31
161 161 163 160 159 161 159 161 163 158 154 150 146 149 162 171 163 155 151 158 166 163 162 160 147 159 176 165 162 161 156 156 150 147 147 146 142 139 143 138 133 138 135 129 124 122 107 79 98 114 115 119 108 135 165 120 102 134 146 125 115 102 102 90 88 122 132 116 108 81 69 88 42 18 39 35 352 1 12 11 14 24 25 20 27
165 164 167 163 164 168 165 163 161 161 160 154 152 159 166 169 161 148 146 160 167 163 170 159 145 163 177 170 168 163 159 157 150 147 152 157 152 144 143 140 139 138 126 116 115 116 111 94 98 107 112 115 106 110 157 117 118 139 145 130 126 117 109 71 82 123 118 90 100 115 99 60 20 39 50 4 328 349 357 357 1 9 10 10 12
169 168 170 167 169 173 168 165 165 166 165 162 162 169 175 172 158 147 152 164 165 162 171 170 167 174 175 176 178 167 162 165 158 151 168 176 157 154 152 139 137 138 129 118 110 103 100 109 111 100 101 109 109 113 108 99 132 136 124 126 126 123 117 78 77 124 116 89 89 129 116 73 41 61 105 85 356 348 345 349 351 354 8 9 2
173 172 173 171 172 175 172 168 169 168 169 172 170 171 178 175 162 151 151 156 155 156 169 175 174 172 172 183 183 168 166 176 172 165 179 185 164 157 151 140 138 135 134 122 104 99 106 125 132 118 105 114 128 127 118 95 105 109 107 103 90 98 117 122 139 133 125 108 90 97 144 156 230 9 61 96 11 345 333 329 335 349 3 360 355
176 175 174 173 175 178 176 172 170 171 173 174 172 169 171 173 171 161 151 151 155 165 175 171 167 168 174 188 187 170 172 176 175 178 181 179 171 157 149 152 148 137 140 133 114 138 193 153 134 157 149 143 142 136 130 121 108 101 113 101 74 80 94 118 170 161 166 199 166 146 49 335 266 360 14 21 3 334 322 320 335 343 336 333 348
176 176 175 175 179 181 179 175 171 171 176 176 173 169 166 169 172 164 158 161 163 168 167 165 172 170 167 178 184 172 174 175 177 190 188 178 175 160 156 161 154 148 148 148 133 141 160 138 155 182 158 145 156 142 127 127 117 105 153 155 128 138 143 109 176 174 170 188 181 170 148 287 240 314 317 327 7 337 332 324 313 326 321 323 338
177 177 177 175 177 182 179 176 172 173 179 180 176 172 168 172 169 161 167 172 170 166 156 159 169 160 156 169 183 181 180 187 191 191 187 185 181 170 169 166 162 166 149 152 180 141 163 218 199 172 153 161 173 154 132 110 96 97 162 172 155 166 176 161 216 265 235 180 177 198 218 247 249 210 206 200 282 310 315 308 315 351 341 327 330
179 176 176 176 178 182 179 176 176 178 183 181 177 174 170 176 169 163 175 170 162 172 171 171 173 165 168 176 184 189 186 194 201 188 185 192 186 180 182 168 163 173 155 155 171 209 218 207 184 186 176 177 181 167 160 118 90 126 122 147 169 162 151 153 218 252 254 248 216 230 247 261 266 298 309 244 256 288 298 307 332 354 325 325 330
179 176 175 175 177 179 179 179 178 179 185 181 179 177 172 179 176 170 181 170 156 177 185 185 186 184 189 189 190 193 185 190 195 190 192 195 193 191 187 171 168 189 194 178 171 185 206 177 172 214 209 183 191 182 175 154 135 137 105 5 274 190 157 139 198 248 273 284 268 260 294 321 292 286 293 291 275 297 297 299 327 326 303 313 318